Regional Weather Roundup
Issued by NWS

Home | Current Version | Previous Version | Text Only | Print | Product List | Glossary On
Versions: 1 2 3 4 5 6 7 8 9 10 11 12 13 14 15 16 17 18 19 20 21 22 23 24 25 26 27 28 29 30 31 32 33 34 35 36 37 38 39 40 41 42 43 44 45 46 47 48 49 50
000
ASUS46 KSEW 192210
RWRWA

WASHINGTON REGIONAL WEATHER ROUNDUP
NATIONAL WEATHER SERVICE SEATTLE WA
300 PM PDT FRI SEP 19 2014

NOTE:"FAIR" INDICATES FEW OR NO CLOUDS BELOW 12,000 FEET WITH NO
SIGNIFICANT WEATHER AND/OR OBSTRUCTIONS TO VISIBILITY.

WAZ505-507>509-192300-
SEATTLE, TACOMA, EVERETT, AND VICINITY

CITY           SKY/WX    TMP DP  RH WIND       PRES   REMARKS
EVERETT        MOSUNNY   72  55  55 NW5       30.11F
BOEING FIELD   MOSUNNY   77  52  41 S8        30.08F
RENTON         SUNNY     74  57  55 CALM      30.08F
SEATAC AIRPORT MOSUNNY   74  55  51 W7        30.10F
JBLM-MCCHORD   SUNNY     76  58  52 W6        30.09F
PUYALLUP       NOT AVBL
JBLM-FT LEWIS  MOSUNNY   76  57  52 W6        30.08F
TACOMA NARROWS SUNNY     73  56  54 VRB6      30.09F
$$

WAZ001-503-506-510-514-515-192300-
NORTH INTERIOR

CITY           SKY/WX    TMP DP  RH WIND       PRES   REMARKS
BELLINGHAM     PTSUNNY   64  58  80 S7        30.10F
FRIDAY HARBOR  CLOUDY    67  59  75 SE3       30.11F
EASTSOUND      PTSUNNY   66  59  77 S8        30.08F
PORT ANGELES     N/A     65  58  78 N5        30.11S
NAS WHIDBEY    PTSUNNY   72  58  61 CALM      30.11S
BURLINGTON     CLOUDY    68  61  77 SE5       30.12S
$$

WAZ020-022-039-040-504-511-512-192300-
SOUTHWEST INTERIOR

CITY           SKY/WX    TMP DP  RH WIND       PRES   REMARKS
SHELTON        PTSUNNY   69  58  67 SW12      30.08F
OLYMPIA        MOSUNNY   77  57  50 NW5       30.08F
CHEHALIS       FAIR      79  59  50 CALM      30.08F
KELSO          SUNNY     77  55  47 W3        30.10F
VANCOUVER      SUNNY     80  50  34 NW6       30.05F
SCAPPOOSE, OR  SUNNY     80  55  42 E7        30.04F
PORTLAND, OR   MOSUNNY   81  52  36 NW8       30.05F
$$

WAZ021-516-517-192300-
WASHINGTON COAST

CITY           SKY/WX    TMP DP  RH WIND       PRES   REMARKS
FORKS          PTSUNNY   66  62  87 SW6       30.11S
HOQUIAM        CLOUDY    63  62  97 SW10      30.12S FOG
ASTORIA, OR    SUNNY     71  57  61 W9        30.10F
$$

WAZ019-023-024-040-518-519-192300-
CASCADE MOUNTAINS AND COLUMBIA GORGE

CITY           SKY/WX    TMP DP  RH WIND       PRES   REMARKS
STAMPEDE PASS  MOSUNNY   60  49  66 VRB7      30.16S
TROUTDALE, OR  SUNNY     81  52  36 W8        30.03F
THE DALLES, OR SUNNY     86  51  29 NW16      29.96F
$$

WAZ026-027-041>044-520-521-192300-
EAST SLOPES

CITY           SKY/WX    TMP DP  RH WIND       PRES   REMARKS
OMAK           PTSUNNY   81  45  28 S7        29.97S
WENATCHEE      PTSUNNY   82  47  29 CALM      29.98S
ELLENSBURG     MOSUNNY   81  52  36 NW18      30.01F
YAKIMA         SUNNY     83  47  28 SE3       29.99F
$$

WAZ028-034-035-192300-
COLUMBIA BASIN

CITY           SKY/WX    TMP DP  RH WIND       PRES   REMARKS
EPHRATA        MOSUNNY   83  46  27 S8        29.98F
MOSES LAKE     PTSUNNY   83  46  27 SW13      29.99F
PASCO          SUNNY     84  49  29 VRB3      29.98F
HERMISTON, OR  SUNNY     84  47  27 SW9       29.98F
$$

WAZ036>038-192300-
NORTHEAST WASHINGTON

CITY           SKY/WX    TMP DP  RH WIND       PRES   REMARKS
SPOKANE GEIGER PTSUNNY   75  46  35 SW18G24   30.05S
SPOKANE FELTS  PTSUNNY   76  46  34 SW14      30.04F
FAIRCHILD AFB  MOSUNNY   75  46  35 SW13G22   30.06S
COEURDALENE,ID CLOUDY    73  48  40 SW10      30.05S
DEER PARK      MOSUNNY   76  46  34 W5G23     30.04S
$$

WAZ029>033-192300-
SOUTHEAST WASHINGTON

CITY           SKY/WX    TMP DP  RH WIND       PRES   REMARKS
PULLMAN        MOSUNNY   72  46  39 VRB6      30.09F
LEWISTON, ID   MOSUNNY   79  47  32 W5        30.02F
WALLA WALLA    SUNNY     81  48  31 VRB3G16   30.03F
PENDLETON, OR  SUNNY     81  46  29 W14       30.02F
$$



USA.gov is the U.S. government's official web portal to all federal, state and local government web resources and services.